Simultaneous Nadir Overpasses (SNOs) Predictions

Prediction of SNOs between NOAA-20 and LANDSAT-9 Satellite Orbit:

Table of predicted SNOs for the next 14.0 days since TLE Epoch: 2/3/2024
Index Date (NOAA-20) Time (NOAA-20) Lat,Lon (NOAA-20) SZA (NOAA-20 ) Date (LANDSAT-9) Time (LANDSAT-9) Lat,Lon (LANDSAT-9) SZA (LANDSAT-9 ) Distance(km) Time Diff (sec)
1 02/03/2024 06:58:03 -70.11,-108.19 93.21 02/03/2024 06:58:43 -70.11,-108.19 93.21 0.09 40
2 02/03/2024 07:48:47 69.98, 59.32 86.65 02/03/2024 07:48:11 69.97, 59.24 86.64 3.44 36
3 02/05/2024 22:24:27 70.69,-160.66 86.63 02/05/2024 22:25:36 70.59,-159.25 86.46 53.09 69
4 02/05/2024 23:14:59 -70.09, 7.62 94.03 02/05/2024 23:15:13 -70.09, 7.66 94.03 1.54 14
5 02/06/2024 00:05:43 69.96, 175.12 85.83 02/06/2024 00:04:41 69.94, 175.09 85.82 2.47 62
6 02/08/2024 14:41:12 70.15, -44.02 85.22 02/08/2024 14:42:12 70.16, -44.00 85.22 1.54 60
7 02/08/2024 15:31:54 -70.07, 123.42 94.88 02/08/2024 15:31:42 -70.05, 123.47 94.91 3.06 12
8 02/08/2024 16:22:28 69.41, -68.30 84.42 02/08/2024 16:21:18 69.45, -69.71 84.53 55.21 70
9 02/11/2024 06:58:07 70.09, 71.84 84.29 02/11/2024 06:58:42 70.08, 71.77 84.29 2.79 35
10 02/11/2024 07:48:49 -70.00,-120.71 95.81 02/11/2024 07:48:11 -70.03,-120.68 95.78 2.99 38
11 02/13/2024 22:24:27 -70.62, 19.46 96.02 02/13/2024 22:25:37 -70.53, 20.65 96.18 45.32 70
12 02/13/2024 23:15:03 70.08,-172.39 83.40 02/13/2024 23:15:10 70.09,-172.34 83.40 2.02 7
13 02/14/2024 00:05:45 -70.00, -4.94 96.71 02/14/2024 00:04:40 -69.98, -4.86 96.72 3.33 65
14 02/16/2024 14:41:14 -70.15, 135.97 97.44 02/16/2024 14:42:12 -70.13, 135.95 97.47 2.90 58
15 02/16/2024 15:31:58 70.04, -56.54 82.43 02/16/2024 15:31:39 70.02, -56.56 82.42 1.97 19



Historial Predications of SNOs between NOAA-20 and LANDSAT-9
